Regional Weather Roundup
Issued by NWS Corpus Christi, TX

Current Version | Previous Version | Text Only | Print | Product List | Glossary On
Versions: 1 2 3 4 5 6 7 8 9 10 11 12 13 14 15 16 17 18 19 20 21 22 23 24 25 26 27 28
000
ASUS44 KCRP 301310
RWRCRP

SOUTH TEXAS REGIONAL WEATHER ROUNDUP
NATIONAL WEATHER SERVICE CORPUS CHRISTI TX
800 AM CDT FRI SEP 30 2022


TXZ229>244-301400-
...CORPUS CHRISTI AREA OBSERVATIONS...

CITY           SKY/WX    TMP DP  RH WIND       PRES   REMARKS
CORPUS CHRISTI PTCLDY    69  64  84 NE6       30.04R
NAS CORPUS CHR PTCLDY    75  68  78 N7        30.03S
ROCKPORT       CLEAR     70  64  81 NE9       30.04S
KINGSVILLE NAS PTCLDY    62  61  96 NW3       30.04R
ALICE          CLEAR     61  59  93 CALM      30.04S
$$

...VICTORIA AREA OBSERVATIONS...

CITY           SKY/WX    TMP DP  RH WIND       PRES   REMARKS
PORT LAVACA    NOT AVBL
VICTORIA       CLEAR     59  52  77 NE7       30.06S
BEEVILLE       FAIR      61  56  84 NE6       30.05S
PLEASANTON     CLEAR     59  56  88 CALM      30.07R
SAN ANTONIO    CLEAR     64  54  69 NE6       30.09R
$$

...LAREDO AREA OBSERVATIONS...

CITY           SKY/WX    TMP DP  RH WIND       PRES   REMARKS
LAREDO         CLEAR     64  56  75 E5        30.04R
COTULLA        CLEAR     65  52  62 NE5       30.05R
DEL RIO        CLEAR     60  54  80 CALM      30.05S
MCALLEN        CLEAR     66  60  81 NE3       30.04R
HEBBRONVILLE   CLEAR     64  58  80 W5        30.06R
$$

...OTHER TEXAS OBSERVATIONS...

CITY           SKY/WX    TMP DP  RH WIND       PRES   REMARKS
BROWNSVILLE    CLEAR     67  63  87 NW3       30.02S
HOUSTON        CLEAR     57  49  74 N5        30.09R
COL. STATION   CLEAR     60  47  61 CALM      30.10R
AUSTIN         CLEAR     58  49  72 CALM      30.09R
TEMPLE         CLEAR     56  44  64 NE5       30.12S
WACO           CLEAR     55  47  74 VRB5      30.12S
FORT WORTH     CLEAR     59  44  57 SE6       30.12R
WICHITA FALLS  PTCLDY    55  47  74 E8        30.12R
LUBBOCK        MOCLDY    56  43  61 NW5       30.14S
EL PASO        MOCLDY    61  39  44 CALM      30.12S
$$

...MARINE OBSERVATIONS...

STATION/POSITION TIME  SKY/WX   TEMP    WIND        PRES    VSBY  WAVE   SWELL
                                AIR SEA DIR/SP/G                  HT/PER HT/PER
                 (UTC)          (F)     (DEG/KT/KT) (MB)    (MI)  (FT/S) (FT/S)
PORT ARANSAS     1200            74      10/  9/ 10   N/A
ARANSAS PASS     1230            75 84  350/ 11/ 13 1016.0S
BUOY 6 SE PORT A NOT AVBL
BUOY 90 E PORT A 1250            76                 1017.0R         5/10   5/10
BUOY 45 SE BAFFI 1250            80 85   10/  8/ 12 1016.7F         5/10   5/10
BUOY 200 E PT IS 1250            76 84   10/ 10/ 14 1015.5R         8/10   8/10
BUOY 15 E GALVES NOT AVBL
$$



USA.gov is the U.S. government's official web portal to all federal, state and local government web resources and services.